DW4852 Weather Reports


time (UTC)temp
F
wind
direction
speed
knots
gust
knots
rain 1hr
in
rain 24hr
in
rain mn
in
humidity
%
barometer
mb
20260503190005 49 70 0.0 1.7 0.07 0.07 0.07 83 1015.6
20260503184511 50 219 0.0 2.6 0.03 0.03 0.03 79 1016.3
20260503183004 52 173 0.0 9.6 0.00 0.00 0.00 74 1016.1
20260503181505 56 170 4.3 13.9 0.00 0.00 0.00 61 1015.8
20260503180003 59 169 1.7 11.3 0.00 0.00 0.00 52 1015.5
20260503174602 59 247 1.7 9.6 0.00 0.00 0.00 50 1015.6
20260503173100 61 197 3.5 10.4 0.00 0.00 0.00 48 1015.9
20260503171612 61 270 1.7 10.4 0.00 0.00 0.00 47 1015.8
20260503170105 60 280 2.6 9.6 0.00 0.00 0.00 50 1016.3
20260503081541 40 162 0.0 1.7 0.00 0.00 0.00 72 1017.6
20260503071552 40 136 0.0 0.0 0.00 0.00 0.00 72 1017.8
20260503054524 37 284 0.0 0.0 0.00 0.00 0.00 78 1018.4
20260503053018 37 284 0.0 0.0 0.00 0.00 0.00 79 1018.5
20260503051518 37 284 0.0 0.0 0.00 0.00 0.00 80 1018.6
20260503050017 36 284 0.0 0.0 0.00 0.00 0.00 83 1018.5
20260503044531 36 286 0.0 0.0 0.00 0.00 0.00 83 1018.7
20260503043021 36 284 0.0 0.0 0.00 0.00 0.00 82 1018.6
20260503041510 37 284 0.0 0.0 0.00 0.00 0.00 83 1018.6
20260503040007 37 284 0.0 0.0 0.00 0.00 0.00 81 1018.6
20260503034507 38 284 0.0 0.0 0.00 0.00 0.00 78 1018.6
20260503033006 39 284 0.0 0.0 0.00 0.00 0.00 79 1018.6
20260503031506 39 284 0.0 0.0 0.00 0.00 0.00 77 1018.6
20260503030006 40 284 0.0 0.0 0.00 0.00 0.00 74 1018.7
20260503024504 40 284 0.0 0.0 0.00 0.00 0.00 72 1018.7
20260503023004 40 285 0.0 0.0 0.00 0.00 0.00 70 1018.7
20260503021503 41 284 0.0 0.0 0.00 0.00 0.00 68 1018.7
20260503020003 41 284 0.0 0.0 0.00 0.00 0.00 64 1018.6
20260503014502 42 284 0.0 0.0 0.00 0.00 0.00 64 1018.4
20260503013002 43 284 0.0 0.0 0.00 0.00 0.00 61 1018.3
20260503011502 44 284 0.0 0.0 0.00 0.00 0.00 57 1018.3
20260503010001 45 284 0.0 0.0 0.00 0.00 0.00 53 1018.4
20260503004600 47 284 0.0 0.0 0.00 0.00 0.00 49 1018.4
20260503003100 49 284 0.0 0.0 0.00 0.00 0.00 47 1018.3
20260503001559 50 284 0.0 2.6 0.00 0.00 0.00 45 1018.2
20260503000110 50 271 0.0 0.0 0.00 0.00 0.00 45 1018.1
20260502234604 50 61 0.0 2.6 0.00 0.00 0.00 44 1018.1
20260502233058 51 228 0.0 4.3 0.00 0.00 0.00 42 1018.1
20260502231558 51 303 0.0 2.6 0.00 0.00 0.00 42 1018.1
20260502230056 51 284 0.0 3.5 0.00 0.00 0.00 41 1018.1
20260502224554 52 151 0.0 3.5 0.00 0.00 0.00 39 1018.1
20260502223054 53 280 0.0 7.8 0.00 0.00 0.00 38 1018.1
20260502221608 54 231 0.9 10.4 0.00 0.00 0.00 39 1018.2
20260502220101 53 271 0.9 6.1 0.00 0.00 0.00 39 1018.2
20260502214552 52 262 0.9 6.1 0.00 0.00 0.00 42 1018.2
20260502213051 52 358 0.0 5.2 0.00 0.00 0.00 42 1018.1
20260502211551 53 34 1.7 7.8 0.00 0.00 0.00 41 1018.2
20260502210104 52 222 0.0 2.6 0.00 0.00 0.00 44 1018.2
20260502204548 51 283 0.0 6.1 0.00 0.00 0.00 43 1018.2
20260502203044 51 271 0.0 2.6 0.00 0.00 0.00 46 1018.4
20260502201547 51 266 0.9 7.8 0.00 0.00 0.00 43 1018.5
20260502200054 51 276 0.9 7.0 0.00 0.00 0.00 44 1018.7
20260502194542 50 277 0.9 3.5 0.00 0.00 0.00 44 1018.9
20260502193043 52 345 0.0 7.0 0.00 0.00 0.00 47 1019.0
20260502191544 51 261 1.7 7.0 0.00 0.00 0.00 46 1019.1